Location: Borowce
(50.8255°N, 19.6209°E)
Time: 21:58:08
(UTC+00:00)

Cosmos 1805 - Pass Details

Date: 19 May 2025
Orbit: 448 x 453 km, 82.5° (Epoch: 16 June)

Event Time Altitude Azimuth Distance (km) Brightness Sun altitude
Rises 20:44:59 0° 349° (N) 2,469 8.2 -15.0°
Reaches altitude 10° 20:47:04 10° 349° (N) 1,590 6.9 -15.1°
Maximum altitude 20:50:32 86° 260° (W) 457 2.8 -15.4°
Enters shadow 20:51:58 33° 174° (S) 779 3.6 -15.5°
